Location: Conflandey
(47.7287°N, 6.0456°E)
Time: 20:58:00
(UTC+00:00)

NOSS 8 (F) - Pass Details

Date: 24 October 2021
Orbit: 374 x 1788 km, 63.3° (Epoch: 04 December)

Event Time Altitude Azimuth Distance (km) Brightness Sun altitude
Rises 17:34:38 0° 217° (SW) 2,611 9.0 -11.3°
Reaches altitude 10° 17:36:59 10° 217° (SW) 1,591 7.8 -11.7°
Maximum altitude 17:40:21 84° 129° (SE) 408 4.1 -12.3°
Enters shadow 17:42:39 16° 42° (NE) 1,112 6.0 -12.6°
